Regional Weather Roundup
Issued by NWS

Home | Current Version | Previous Version | Graphics & Text | Print | Product List | Glossary On
Versions: 1 2 3 4 5 6 7 8 9 10 11 12 13 14 15 16 17 18 19 20 21 22 23 24 25 26 27 28 29 30 31 32 33 34 35 36 37 38 39 40 41 42 43 44 45 46 47 48 49 50
000
ASUS45 KBOI 221910
RWRID
WEATHER ROUNDUP FOR IDAHO
NATIONAL WEATHER SERVICE BOISE ID
100 PM MDT TUE JUL 22 2014

NOTE: "FAIR" INDICATES FEW OR NO CLOUDS BELOW 12000 FEET
WITH NO SIGNIFICANT WEATHER AND/OR OBSTRUCTIONS TO VISIBILITY

IDZ012-014-222000-
SOUTHWEST IDAHO


CITY           SKY/WX    TMP DP  RH WIND       PRES   REMARKS
BOISE          MOSUNNY   88  48  25 CALM      30.13F
CALDWELL       MOSUNNY   84  48  28 E5        30.14F
MOUNTAIN HOME  PTSUNNY   85  50  30 E6        30.14F
$$

IDZ016-017-222000-
SOUTHCENTRAL IDAHO


CITY           SKY/WX    TMP DP  RH WIND       PRES   REMARKS
BURLEY         SUNNY     83  51  33 NE8       30.19F
JEROME         MOSUNNY   85  55  35 VRB3      30.20F
TWIN FALLS     MOSUNNY   85  50  29 NE12      30.20F
$$

IDZ019>023-222000-
SOUTHEAST IDAHO


CITY           SKY/WX    TMP DP  RH WIND       PRES   REMARKS
IDAHO FALLS    MOSUNNY   80  54  40 NW5       30.27F
POCATELLO      SUNNY     85  51  31 N8        30.24F
REXBURG        SUNNY     79  52  38 NW3       30.28F
$$

IDZ006-010-011-018-031-032-222000-
CENTRAL IDAHO MOUNTAINS


CITY           SKY/WX    TMP DP  RH WIND       PRES   REMARKS
MCCALL         MOSUNNY   76  46  34 S10G21    30.24F
HAILEY         MOSUNNY   77  48  36 S6        30.32S
STANLEY          N/A     76  39  26 S14G22    30.33F
SALMON         MOSUNNY   86  45  23 SW14G21   30.11F
CHALLIS        MOSUNNY   82  43  25 E8        30.22F
$$

IDZ002-004-006-007-026-222000-
NORTHERN IDAHO


CITY           SKY/WX    TMP DP  RH WIND       PRES   REMARKS
LEWISTON       SUNNY     84  46  26 E5        30.04F
LOWELL           N/A     83  56  39 N3        30.01F
COEUR D`ALENE  CLOUDY    61  55  82 MISG      30.16R
MULLAN PASS    PTSUNNY   59  44  57 CALM      30.28R
$$


USA.gov is the U.S. government's official web portal to all federal, state and local government web resources and services.